Volver al catálogo

SCOUT A DEB

ActivoPO
NORAD 2644·DEBRIS·🇺🇸 United States

Lanzado May 19, 1966 desde Vandenberg Space Force Base

Loading…

Próximos Pases (próximas 24 horas)

TLE

ActualizadoSource: Space-Track

Época: Sep 13, 2026, 09:35 UTC

1 02644U 66041D   26256.39948789  .00000202  00000-0  16199-3 0  9994
2 02644  90.1699  46.8642 0214289 100.0222 262.5198 13.77251647 10585

Sigue SCOUT A DEB en tiempo real con AllMySat

Download on the App Store